Location: Franzen
(48.6167°N, 15.3833°E)
Time: 10:26:26
(UTC+00:00)

CARTOSAT-1 - Pass Details

Date: 22 April 2021
Orbit: 615 x 619 km, 97.8° (Epoch: 16 May)

Event Time Altitude Azimuth Distance (km) Brightness Sun altitude
Exits shadow 20:33:28 45° 196° (SSW) 853 4.0 -21.2°
Maximum altitude 20:34:39 66° 258° (WSW) 681 3.8 -21.3°
Drops below altitude 10° 20:38:58 10° 341° (NNW) 1,994 7.2 -21.7°
Sets 20:41:11 0° 345° (NNW) 2,904 8.2 -21.9°
